map of MIR home
Great Circle Mapper logo
MIR - Airport
Location
City:  Monastir, Tunisia
Name:Habib Bourguiba International Airport
ICAO / IATA:DTMB / MIR

Details
Type:Airport (Aerodrome, Airfield)
Use:Public/Civil, International (customs port of entry)
Latitude:3545'29"N (35.758056)
Longitude:1045'17"E (10.754722)
Datum:WGS 1984
Elevation:9 ft (3 m)
Variation:2.20E (WMM2015 magnetic declination)
0.10 annual change
Runways:1
Longest:9744 × 148 ft (2970 × 45 m), paved

Time
Time Zone:UTC+1 (DST+2)

Weather
METAR:DTMB 061300Z 07010KT CAVOK 33/17 Q1019 NOSIG
TAF:DTMB 052340Z 0600/0624 17004KT 9999 FEW023 PROB30
TEMPO 0605/0607 4000 BR
BECMG 0607/0609 09006KT 9999 FEW023
BECMG 0622/0624 18006KT

Related Locations
Nearby:
Farthest:CHT: 11759 mi / 18924 km
Waitangi [Tuuta], Chatham Islands, NZ

Find:

   beyond  
but within

Other Information
Maps:
NOTAMs:
Links:
Sources:

  
flag of Tunisia   

Sectional Chart

Flight Planning
at skyvector.com

Satellite Image

Google Maps Satellite view

 

Copyright © 2004-2015 Karl L. Swartz. All rights reserved.
The Great Circle Mapper name and logo are trademarks of the Great Circle Mapper.
All other trademarks mentioned herein belong to their respective owners.
Please see credits for attibutions and further copyright information.

  Follow gcmap on Facebook Follow gcmap on Twitter Follow gcmap on Google+

hCard Microformat

Geo Microformat